Wind_Speed
33 33 31 30 29 26 24 23 22 23 23 23 22 21 19 19 17 17 17 17 17 17 16 15 15 14 13 12 11 12 12 11 12 11 10 10 9 9 9 9 8 8 8 7 7 7 6 6 5 5 4 4 3 3 3 3 3 3 3 3 3 2 2
34 34 33 32 31 28 26 24 23 23 24 24 23 22 21 19 19 18 18 18 18 18 17 16 16 15 14 13 12 12 11 11 11 10 10 9 9 9 8 8 8 8 7 7 7 7 7 7 6 6 5 5 4 4 4 3 3 3 3 2 2 2 2
37 33 34 34 32 30 28 26 25 25 25 25 24 23 22 21 20 20 19 18 18 18 17 17 16 15 15 14 14 12 12 12 11 10 10 9 9 9 9 8 8 7 7 7 7 7 7 7 7 7 7 6 6 5 5 5 4 4 4 3 3 3 2
41 37 34 36 34 32 31 29 27 27 26 26 25 24 24 23 22 21 21 19 19 18 18 17 16 15 15 14 14 13 13 12 12 11 11 10 10 10 10 9 8 8 8 8 8 8 8 8 8 8 8 7 7 7 6 6 6 5 5 5 5 4 4
40 42 37 36 36 34 33 32 29 29 29 28 27 26 25 24 23 22 22 20 20 20 19 18 17 16 15 15 14 14 14 13 12 12 11 11 11 11 11 10 9 9 9 9 9 9 9 9 9 9 8 8 7 7 7 7 6 6 6 6 6 6 6
34 42 40 37 38 36 34 33 31 31 31 30 29 28 27 26 24 23 22 21 21 20 19 18 18 17 16 16 15 14 14 13 13 13 13 12 12 12 12 11 10 10 10 10 10 10 10 10 10 10 10 9 8 8 7 8 8 7 7 8 7 7 7
31 37 42 40 38 38 36 34 33 33 33 32 31 31 29 27 26 25 23 23 22 21 19 18 18 17 17 17 16 16 16 15 15 15 14 14 14 14 13 12 12 11 11 11 11 11 11 11 11 11 11 10 10 10 10 9 9 9 9 9 9 9 9
31 33 43 44 40 40 38 35 35 35 35 34 33 32 30 28 28 27 25 24 23 22 21 19 18 17 17 17 17 17 18 17 17 16 16 16 16 15 15 14 14 13 13 12 12 11 11 11 11 12 12 12 12 12 12 11 11 11 11 11 11 10 10
30 30 40 47 43 41 41 38 37 37 36 36 35 32 32 31 29 28 27 26 25 23 22 21 20 18 18 18 18 18 18 18 18 18 17 17 17 17 17 16 16 15 15 14 13 12 12 12 12 12 12 13 13 13 13 12 12 12 12 12 12 11 11
27 26 33 46 46 41 42 41 39 40 39 37 36 33 32 32 31 29 29 28 26 25 24 23 22 21 20 20 19 19 19 19 19 19 18 18 18 18 18 18 17 17 16 16 15 14 14 13 13 13 13 13 13 14 14 13 13 13 13 13 13 13 13
25 24 27 43 50 43 41 44 43 41 40 38 37 35 33 32 32 30 30 29 28 27 26 25 24 23 22 22 21 20 20 20 20 20 19 19 19 19 19 19 18 18 18 18 17 16 16 16 16 15 15 14 14 15 15 15 15 15 14 14 14 14 14
24 24 23 35 50 47 42 44 45 42 42 41 39 38 37 35 33 32 31 30 30 29 27 26 25 25 24 24 23 23 22 22 22 22 21 21 21 21 20 20 19 19 19 19 19 18 18 18 17 17 16 16 15 16 16 16 16 16 16 15 15 15 15
23 25 22 25 40 49 46 44 46 46 44 44 42 40 39 38 35 34 34 33 32 31 29 28 27 26 26 26 26 25 25 25 24 24 24 23 23 23 22 22 22 21 20 20 20 20 20 20 19 18 17 17 16 16 16 16 16 16 16 16 17 16 16
21 24 24 22 29 45 52 48 47 48 46 45 45 42 40 40 38 36 36 35 33 32 31 30 29 29 28 28 27 27 27 27 26 25 25 25 25 25 24 24 24 23 22 21 22 22 22 21 20 19 18 18 18 17 17 17 18 18 18 18 18 18 18
20 22 26 25 25 36 48 49 47 46 46 45 45 45 44 43 41 39 37 35 33 32 32 31 31 30 30 29 29 29 28 28 27 26 26 26 25 25 24 24 24 24 24 23 24 24 23 22 21 20 19 19 19 18 18 19 19 20 21 20 20 20 20
22 20 22 26 27 31 40 49 50 47 46 46 46 46 45 44 42 39 38 35 34 33 32 32 32 31 30 30 30 29 28 28 27 27 27 26 24 23 23 24 25 25 24 24 25 25 24 24 24 23 22 21 21 21 21 21 22 24 24 23 22 22 22
23 20 17 21 29 34 40 49 51 49 48 47 46 45 45 44 41 39 37 35 34 34 34 33 33 32 32 32 31 29 29 29 29 28 27 26 24 24 24 25 26 26 26 25 26 26 26 26 26 25 24 23 23 24 24 24 26 27 27 25 24 24 24
22 20 15 18 30 39 41 46 48 49 50 48 46 46 45 43 40 38 37 36 35 35 36 35 34 34 33 33 32 30 30 30 29 28 28 27 26 26 26 27 28 29 28 27 26 27 28 28 28 28 28 27 26 26 25 26 28 29 29 28 27 26 26
19 19 13 17 32 43 44 45 47 49 51 49 47 47 46 43 41 39 37 36 36 36 35 35 35 35 35 34 32 30 30 29 28 28 28 27 27 27 28 29 30 30 30 29 29 29 29 29 29 29 30 30 28 27 27 29 30 30 29 28 28 28 28
18 19 13 14 28 43 47 47 49 51 50 48 47 46 45 43 41 39 38 37 36 36 35 35 35 35 35 34 32 29 29 29 28 27 26 27 27 27 28 28 28 29 30 29 30 29 29 29 30 30 31 31 30 29 30 32 32 32 31 30 30 29 29
19 19 15 14 20 36 47 47 48 50 47 44 45 45 44 43 40 39 39 38 37 37 36 35 36 35 35 34 31 29 29 29 27 26 26 26 26 26 27 28 28 29 29 29 30 30 29 29 30 29 30 30 30 30 32 33 34 34 34 33 32 31 30
22 21 18 16 16 28 43 48 48 49 46 44 46 47 45 43 42 41 40 39 38 38 37 36 35 34 33 32 30 29 29 29 28 28 27 27 27 27 29 30 30 30 31 32 33 32 31 31 32 30 29 29 29 30 32 35 37 36 35 35 34 33 31
23 23 20 17 15 20 33 45 48 49 49 47 46 46 46 44 42 41 40 39 39 37 36 35 34 33 32 32 31 31 31 30 29 29 30 29 29 31 32 33 33 34 35 36 37 37 35 34 33 32 31 31 30 30 32 36 37 36 34 34 34 33 32
23 24 22 18 14 13 21 38 48 48 49 49 46 45 45 44 43 41 40 39 39 38 37 37 35 34 33 33 32 32 32 31 32 33 33 33 35 37 37 37 38 38 38 38 39 40 38 36 35 35 35 35 33 32 34 37 37 35 34 34 34 34 33
21 23 23 20 15 10 10 26 43 47 46 46 46 46 46 45 44 43 40 40 40 39 38 37 36 34 33 32 32 33 33 34 36 37 38 38 39 40 41 41 42 43 43 43 43 42 40 38 36 35 37 38 38 37 38 39 39 37 35 33 34 35 35
21 21 21 20 18 14 7 11 27 40 45 46 46 46 45 45 44 43 42 42 42 40 39 38 36 34 33 33 34 35 35 36 36 36 37 38 37 38 40 41 41 42 44 45 45 45 44 42 39 38 38 40 42 43 42 42 41 39 36 34 35 36 37
21 20 19 18 18 18 12 6 12 26 37 43 47 46 44 44 44 44 43 43 43 42 39 37 35 34 34 35 36 36 36 35 33 33 35 36 35 37 39 39 39 41 42 42 42 45 47 47 45 43 40 39 41 44 43 42 41 39 37 36 36 37 37
22 21 19 17 16 16 14 9 9 14 21 28 37 40 39 38 39 39 39 42 44 44 42 40 38 38 38 37 36 34 34 34 34 34 35 34 34 34 34 32 32 35 37 38 39 42 45 46 45 42 38 38 41 42 41 40 40 40 40 40 39 38 38
22 22 20 18 16 15 15 12 10 12 14 17 24 27 26 25 26 26 27 30 33 35 36 37 35 34 34 33 32 30 27 24 24 25 27 26 25 27 30 30 28 29 33 36 38 39 39 40 39 38 39 41 42 40 39 39 40 41 42 42 40 39 40
22 22 21 19 16 15 16 13 10 12 15 17 19 21 20 18 18 19 20 21 23 23 25 27 28 29 29 29 30 30 25 19 16 16 17 16 15 18 24 26 25 26 29 31 34 37 40 40 38 36 37 38 38 37 38 38 38 38 40 40 40 40 41
23 21 20 20 17 15 15 16 13 13 15 16 16 17 17 16 15 15 16 18 19 20 20 22 23 25 26 27 28 28 26 23 20 18 16 14 12 13 16 18 18 18 17 16 17 23 31 36 35 32 29 28 27 26 27 29 30 31 30 30 32 35 38
24 22 20 20 18 16 14 15 15 15 14 14 14 15 16 17 16 15 15 15 16 17 18 20 20 20 21 23 25 26 26 24 24 23 20 16 14 14 14 15 14 14 12 9 8 9 13 20 22 21 19 18 16 16 17 19 22 24 23 22 24 27 29
24 21 19 19 19 17 15 14 14 14 13 13 13 13 14 15 14 13 12 11 11 11 12 14 16 17 18 19 21 22 23 22 22 22 22 19 18 18 18 18 16 15 13 12 11 10 11 12 14 15 16 16 15 15 16 18 21 23 24 24 25 25 25
21 20 18 18 19 19 17 13 12 13 14 15 14 12 12 13 13 12 11 11 10 11 12 13 14 15 16 17 18 19 19 19 19 20 21 21 20 20 21 20 19 18 18 18 17 17 17 17 18 19 20 20 20 21 22 23 24 25 25 26 27 27 27
19 19 18 18 19 20 18 15 13 13 14 14 14 12 11 12 12 11 11 11 11 12 13 14 14 14 14 14 16 17 18 18 19 20 22 22 22 22 22 21 20 20 20 20 21 21 22 22 23 24 25 25 26 27 28 28 29 29 29 29 30 30 31
24 23 22 21 20 20 19 18 17 16 15 15 14 13 12 12 11 11 11 11 11 11 12 14 15 14 14 14 14 15 16 17 18 20 20 22 22 22 22 22 21 21 22 22 22 23 24 24 26 27 28 29 30 31 31 32 32 32 33 33 33 34 35
27 26 25 23 21 21 21 19 19 18 17 16 15 15 14 13 12 12 12 12 13 13 14 16 17 18 18 18 18 18 18 19 20 20 21 22 22 23 23 23 23 23 23 23 24 25 25 26 27 28 29 31 32 33 33 34 35 35 35 36 36 37 37
28 26 25 24 22 23 22 19 17 17 16 15 14 14 14 14 14 14 14 14 15 16 16 18 19 20 20 21 21 21 22 22 22 22 22 23 23 24 24 25 25 26 26 27 27 28 28 29 30 30 31 32 33 34 35 36 37 38 38 39 39 40 40
Wind_Direction
206 212 213 212 211 209 205 203 204 209 208 205 205 205 204 205 206 205 204 202 201 199 198 197 197 196 195 193 193 194 193 190 188 189 190 190 190 190 191 190 189 191 193 195 197 198 201 201 196 193 192 190 188 184 183 181 180 179 176 175 172 172 176
206 210 212 212 210 207 205 204 203 206 208 206 205 206 207 207 206 207 207 206 205 205 204 202 201 199 198 196 197 199 199 198 195 192 193 193 192 193 194 196 196 198 200 202 204 209 213 215 213 212 214 217 218 218 218 218 217 216 214 205 201 203 206
210 210 211 211 210 207 205 205 204 205 207 206 204 206 208 210 208 208 210 209 208 209 208 207 205 202 202 200 201 203 204 206 205 200 200 200 198 198 199 200 201 202 205 208 210 215 220 224 224 223 224 227 230 232 232 235 238 241 242 239 233 233 232
212 212 212 210 210 208 206 205 203 204 207 206 204 205 208 211 211 210 211 211 210 211 210 210 209 206 206 205 205 207 208 210 211 209 208 209 207 208 207 206 207 208 210 214 218 222 226 230 232 231 230 229 231 236 239 241 244 248 252 254 256 258 261
215 213 212 210 209 210 209 206 203 204 207 207 206 206 208 211 212 211 212 212 212 212 210 210 212 211 210 208 209 212 213 212 215 216 215 216 215 215 215 214 215 216 217 220 224 228 231 234 237 238 238 237 236 239 243 246 249 252 257 261 264 268 272
225 215 213 211 209 210 211 208 204 205 207 207 207 207 208 211 213 214 212 212 215 214 211 210 212 214 214 213 212 214 216 216 219 221 221 222 222 222 221 219 219 222 223 224 226 228 230 234 238 241 242 244 246 247 250 252 253 255 258 262 266 269 270
236 221 214 213 211 210 210 208 206 207 207 208 208 208 209 210 213 215 214 214 216 216 214 212 213 214 217 218 217 216 217 218 220 222 223 225 226 227 227 226 224 226 227 229 230 229 230 233 236 239 240 242 245 247 250 253 256 256 257 260 264 267 269
241 229 215 213 213 212 211 208 207 209 210 210 210 209 209 211 213 216 216 216 218 219 218 217 217 218 220 223 224 222 221 220 221 223 225 226 227 229 230 230 229 230 231 232 233 233 234 236 238 240 240 240 242 245 249 254 259 261 261 262 264 265 268
238 234 219 212 212 213 213 210 209 211 212 212 212 210 210 213 215 216 217 218 220 221 222 222 221 222 223 225 227 227 227 226 225 227 228 229 230 231 231 233 233 234 236 237 238 238 239 240 242 243 243 243 244 246 248 252 257 261 263 265 265 266 268
233 235 223 214 212 214 215 213 211 212 213 214 214 213 212 213 215 217 218 218 219 221 222 224 224 225 226 228 229 229 229 229 229 230 231 232 234 234 235 236 236 238 240 242 243 244 245 246 247 248 248 249 250 251 252 254 256 259 262 264 266 266 267
231 234 226 214 212 214 215 214 212 213 214 215 216 216 215 216 215 217 219 219 220 220 221 223 225 226 227 228 230 231 232 233 232 233 234 236 237 237 238 239 240 242 244 247 248 248 250 250 251 252 253 255 256 256 257 258 258 258 259 261 263 266 267
234 233 231 218 213 213 216 216 214 213 214 216 217 218 218 218 216 217 219 219 220 221 222 222 224 226 228 229 231 232 233 235 236 236 237 239 240 240 240 241 242 243 245 249 251 252 252 253 254 255 256 257 258 258 258 259 260 260 259 258 259 260 262
240 234 236 230 218 213 215 217 216 215 215 217 219 219 220 219 218 219 220 220 221 222 223 224 225 226 229 230 232 233 234 235 236 238 240 241 244 245 245 245 245 245 246 249 253 254 254 254 254 255 256 257 257 258 258 258 258 259 258 257 256 253 253
244 239 238 243 228 216 215 218 218 216 216 218 220 219 220 220 219 220 222 223 224 226 226 227 227 228 230 231 232 234 235 237 238 240 242 244 246 248 249 250 251 251 250 251 253 255 257 257 256 255 256 257 257 257 257 258 258 258 257 257 256 254 253
240 243 241 245 236 219 215 218 220 218 217 220 222 221 221 221 220 221 224 225 227 229 231 231 231 231 232 232 234 237 238 240 241 243 245 247 249 252 255 257 258 259 259 258 258 258 260 262 262 259 256 256 257 257 257 258 259 260 260 259 259 258 257
232 240 246 245 235 220 214 216 220 221 219 220 223 223 222 222 221 221 223 225 227 230 233 235 235 236 236 236 238 240 242 244 245 246 248 251 253 256 260 262 264 264 264 264 265 264 265 265 264 263 260 258 259 258 258 258 259 259 260 260 260 261 261
227 233 247 245 228 220 218 217 218 220 220 219 222 223 222 222 222 222 223 225 227 230 234 236 237 238 239 240 240 241 243 245 247 248 250 251 251 253 255 257 260 261 260 262 264 265 265 265 265 264 262 260 260 260 260 263 264 263 262 261 260 260 261
227 230 245 239 220 217 222 219 216 217 219 219 221 221 221 221 221 222 223 225 227 230 233 236 238 239 240 242 242 241 244 247 248 249 250 250 250 250 252 254 257 258 259 258 258 258 260 261 261 262 261 259 258 259 262 264 265 265 264 264 264 262 260
224 230 248 239 218 214 216 216 215 217 218 218 218 218 219 220 220 220 222 224 227 230 232 235 238 240 241 243 244 244 247 249 250 250 252 253 253 252 252 253 255 257 258 256 255 257 259 260 259 258 259 259 257 259 261 261 262 265 266 267 265 263 261
225 229 249 249 223 214 212 212 213 215 215 215 217 218 218 219 220 222 223 225 227 230 232 234 237 239 242 243 243 245 248 249 250 250 250 251 252 252 252 252 254 256 257 256 257 258 260 262 261 260 260 260 260 259 259 259 260 264 268 268 266 265 265
234 233 245 262 239 220 213 212 214 215 213 213 216 218 219 219 220 222 224 226 228 229 230 232 233 236 239 239 239 242 243 243 244 245 245 246 247 248 250 251 253 257 259 260 260 259 259 260 262 263 263 262 262 261 260 259 260 263 266 267 267 266 266
241 239 248 269 263 231 219 216 217 218 216 215 217 218 218 218 219 222 224 226 229 230 231 232 232 234 236 236 237 238 237 237 240 242 244 246 249 251 252 252 252 255 260 262 261 260 259 258 260 263 265 264 262 260 259 260 262 263 265 266 266 265 264
241 242 250 266 272 250 229 219 218 219 218 219 221 221 221 221 222 224 226 228 230 232 233 234 233 234 235 236 237 237 238 240 242 245 247 249 251 253 254 255 254 255 257 258 258 259 260 261 261 260 261 261 259 256 256 258 260 261 261 262 263 263 262
242 242 250 258 267 271 239 221 219 220 218 219 222 222 222 224 224 225 227 229 230 230 232 234 234 234 235 238 239 241 244 247 249 251 254 255 255 255 256 256 255 255 255 253 255 258 260 261 261 259 258 258 256 254 255 256 257 258 258 259 261 261 260
248 244 249 253 259 279 255 221 220 222 219 219 222 223 223 225 226 225 227 230 231 230 231 233 234 236 239 243 245 248 249 252 255 258 259 259 258 258 257 255 254 255 256 255 255 257 258 260 261 259 257 257 255 254 256 256 256 258 259 259 259 258 257
253 249 249 250 252 261 262 214 216 220 221 222 225 227 227 229 230 230 229 231 232 232 232 234 236 239 243 246 249 252 254 256 258 260 260 259 258 258 257 255 254 254 255 255 256 257 256 255 255 253 253 256 255 254 256 258 258 259 261 260 258 257 256
253 251 249 249 250 250 247 229 212 212 214 219 224 227 230 232 234 235 235 233 232 231 231 232 235 240 244 248 252 255 257 257 254 253 254 254 253 254 256 258 258 257 255 253 252 253 253 252 252 252 252 255 255 254 255 258 259 259 259 260 259 257 258
252 252 250 250 253 247 243 252 242 211 200 206 213 220 226 230 232 233 235 235 235 235 235 235 236 240 243 246 249 252 255 256 250 246 246 245 244 245 247 250 252 253 252 249 246 247 250 250 250 250 250 252 254 255 256 259 260 259 259 259 258 257 258
251 251 250 252 260 255 248 257 255 221 195 187 197 206 211 213 212 211 213 219 224 228 230 230 230 230 231 233 235 237 244 250 246 241 242 245 246 240 233 232 236 241 247 250 250 249 248 245 246 249 251 254 257 258 258 260 261 260 259 258 255 255 257
252 252 249 253 265 264 251 250 248 223 203 192 194 202 203 201 202 204 205 205 203 203 207 211 213 215 219 222 224 228 232 238 242 245 251 258 253 233 225 230 238 245 251 257 257 254 249 248 252 256 257 256 258 258 258 259 260 260 259 258 257 257 258
251 253 250 251 264 269 254 243 236 225 216 207 201 205 208 207 209 215 218 219 215 211 212 214 215 218 222 224 227 233 238 243 252 262 271 275 262 234 225 232 240 247 254 262 263 256 247 244 248 253 254 254 254 252 252 253 254 255 257 260 261 260 258
245 251 250 247 255 266 260 244 232 225 223 219 214 214 216 215 215 220 226 228 227 225 227 230 232 234 237 238 241 246 251 255 260 265 269 273 267 252 243 241 243 249 255 259 266 258 236 230 234 240 243 242 238 235 238 243 246 248 249 250 254 256 256
234 240 244 241 244 253 257 248 234 222 216 216 217 219 223 224 225 231 236 234 232 233 236 240 244 246 248 250 253 256 259 262 265 267 268 270 268 262 257 252 250 254 259 260 262 260 249 242 242 242 242 240 237 240 245 250 253 255 254 254 256 260 263
228 228 229 227 229 238 246 247 239 226 218 221 225 225 228 232 232 234 237 235 235 241 248 254 256 255 254 254 255 258 261 263 263 264 265 265 263 259 257 257 258 261 266 268 267 264 262 259 254 250 251 253 253 256 261 265 266 266 265 266 267 270 271
219 215 216 217 219 224 229 232 235 232 227 227 229 226 225 231 233 235 239 240 239 242 246 250 256 259 257 255 254 255 257 259 260 260 260 261 261 260 261 264 268 269 271 271 270 269 267 265 262 261 264 267 268 270 273 276 277 276 276 276 276 276 276
216 215 217 220 219 216 215 218 226 232 233 233 233 231 230 235 241 243 245 247 244 242 242 246 252 257 258 257 256 256 257 259 262 263 265 267 269 271 273 275 275 275 276 276 276 275 274 274 274 274 275 277 280 281 282 282 283 283 283 282 282 281 280
214 216 217 217 215 213 213 215 219 225 231 235 239 242 241 243 248 251 251 250 247 244 244 246 249 252 255 255 256 257 258 261 263 266 268 271 273 276 278 279 279 278 277 276 275 275 276 276 276 277 278 280 281 283 284 285 285 286 285 285 284 284 283
211 212 216 219 218 216 217 218 219 224 229 233 239 245 247 246 247 249 249 247 244 243 244 246 248 251 253 256 258 260 262 264 266 268 269 271 273 275 277 279 281 281 281 281 280 278 277 277 277 277 277 278 280 281 282 282 283 284 285 285 285 284 284
Height
5888 5890 5892 5894 5896 5898 5899 5899 5901 5903 5905 5906 5907 5909 5910 5912 5913 5915 5917 5918 5920 5921 5922 5923 5924 5926 5927 5928 5929 5930 5931 5932 5932 5933 5934 5935 5936 5936 5937 5938 5938 5938 5939 5939 5940 5940 5940 5941 5941 5942 5942 5943 5943 5944 5944 5945 5945 5946 5946 5946 5947 5947 5947
5886 5888 5890 5892 5894 5896 5897 5898 5899 5901 5903 5904 5906 5907 5909 5910 5912 5914 5916 5917 5919 5920 5922 5923 5924 5926 5927 5928 5929 5930 5931 5932 5932 5933 5934 5935 5936 5936 5937 5938 5938 5939 5939 5940 5940 5940 5941 5941 5941 5942 5942 5943 5943 5944 5945 5945 5946 5946 5947 5947 5947 5947 5947
5885 5886 5888 5890 5892 5894 5896 5897 5898 5899 5901 5903 5904 5906 5907 5909 5911 5913 5915 5916 5918 5920 5921 5923 5924 5925 5927 5928 5929 5930 5931 5932 5932 5933 5934 5935 5936 5936 5937 5938 5938 5939 5939 5940 5940 5940 5941 5941 5942 5942 5942 5943 5943 5944 5944 5945 5946 5946 5946 5947 5947 5947 5948
5883 5885 5886 5888 5890 5892 5893 5894 5896 5897 5899 5901 5902 5904 5906 5907 5909 5911 5913 5915 5917 5919 5920 5922 5923 5925 5926 5927 5929 5930 5931 5932 5932 5933 5934 5935 5935 5936 5937 5937 5938 5939 5939 5940 5940 5941 5941 5942 5942 5942 5943 5943 5943 5944 5944 5945 5945 5946 5946 5947 5947 5947 5948
5879 5881 5883 5885 5888 5890 5891 5893 5894 5895 5897 5899 5900 5902 5904 5906 5908 5910 5912 5914 5916 5917 5919 5921 5923 5924 5925 5926 5928 5929 5930 5931 5932 5933 5934 5934 5935 5936 5936 5937 5938 5938 5939 5939 5940 5940 5941 5942 5942 5942 5943 5943 5943 5944 5944 5944 5945 5945 5946 5946 5946 5947 5947
5876 5878 5881 5882 5885 5887 5889 5891 5892 5893 5895 5897 5898 5900 5902 5904 5906 5908 5910 5913 5914 5916 5918 5920 5921 5922 5923 5925 5926 5928 5929 5930 5932 5933 5933 5934 5935 5935 5936 5937 5937 5938 5938 5939 5939 5940 5941 5941 5942 5942 5943 5943 5944 5944 5944 5944 5945 5945 5945 5946 5946 5946 5947
5873 5876 5878 5880 5882 5885 5887 5889 5890 5891 5893 5895 5896 5897 5900 5902 5905 5907 5909 5911 5912 5914 5916 5918 5919 5921 5922 5923 5925 5926 5928 5929 5930 5931 5932 5933 5934 5934 5935 5936 5936 5937 5938 5938 5939 5939 5940 5941 5941 5942 5942 5943 5943 5944 5944 5944 5944 5945 5945 5945 5945 5946 5946
5870 5872 5874 5877 5880 5882 5884 5886 5887 5889 5891 5892 5894 5896 5898 5900 5902 5904 5907 5909 5910 5912 5914 5916 5917 5919 5921 5922 5923 5925 5926 5928 5929 5930 5930 5931 5932 5933 5934 5935 5935 5936 5937 5937 5938 5938 5939 5940 5940 5941 5941 5942 5943 5943 5943 5943 5944 5944 5945 5945 5945 5945 5946
5866 5869 5870 5874 5877 5879 5881 5884 5885 5887 5888 5890 5892 5894 5896 5898 5900 5902 5905 5907 5908 5910 5912 5913 5915 5917 5919 5920 5922 5923 5925 5926 5927 5928 5929 5930 5930 5932 5932 5933 5934 5935 5935 5936 5937 5938 5938 5939 5939 5940 5941 5941 5942 5942 5942 5943 5943 5944 5944 5944 5944 5945 5945
5863 5866 5867 5871 5875 5876 5878 5881 5882 5884 5886 5888 5891 5893 5894 5896 5898 5900 5902 5905 5906 5908 5910 5911 5913 5915 5917 5918 5920 5921 5923 5924 5925 5926 5927 5928 5929 5930 5931 5932 5933 5933 5934 5935 5936 5937 5937 5938 5939 5939 5940 5941 5941 5942 5942 5942 5943 5943 5943 5943 5944 5944 5944
5860 5862 5864 5867 5870 5873 5875 5877 5879 5881 5884 5887 5889 5892 5893 5895 5896 5898 5900 5902 5904 5906 5908 5910 5911 5913 5915 5916 5917 5919 5920 5922 5923 5924 5925 5926 5927 5928 5929 5930 5931 5932 5933 5934 5935 5936 5936 5937 5938 5938 5939 5940 5940 5941 5941 5941 5942 5942 5942 5942 5942 5943 5943
5857 5859 5861 5863 5866 5869 5872 5874 5876 5879 5881 5884 5887 5889 5891 5892 5894 5896 5898 5900 5902 5904 5906 5908 5909 5911 5913 5914 5915 5917 5918 5919 5920 5921 5922 5923 5924 5926 5927 5928 5929 5931 5932 5932 5933 5934 5935 5936 5937 5937 5938 5939 5939 5939 5940 5940 5940 5940 5941 5941 5940 5941 5941
5855 5857 5858 5861 5863 5866 5869 5871 5873 5876 5878 5881 5884 5886 5888 5889 5891 5893 5895 5897 5899 5901 5903 5905 5907 5909 5910 5912 5913 5914 5915 5917 5918 5919 5920 5921 5922 5924 5925 5926 5927 5929 5930 5931 5931 5932 5933 5934 5935 5936 5937 5937 5937 5938 5938 5938 5938 5938 5938 5939 5939 5939 5938
5854 5855 5856 5858 5860 5863 5866 5868 5870 5872 5875 5877 5880 5884 5886 5888 5889 5891 5893 5895 5897 5899 5901 5903 5905 5906 5908 5909 5911 5912 5913 5914 5916 5917 5919 5920 5921 5922 5923 5924 5925 5927 5928 5929 5929 5930 5930 5932 5933 5935 5935 5935 5936 5936 5936 5936 5936 5936 5936 5937 5937 5937 5937
5851 5852 5853 5855 5856 5858 5863 5866 5868 5870 5872 5875 5877 5880 5883 5885 5887 5889 5890 5892 5895 5897 5899 5900 5902 5903 5905 5907 5908 5909 5911 5912 5914 5916 5917 5918 5919 5921 5923 5924 5925 5925 5926 5927 5927 5928 5929 5930 5931 5933 5934 5934 5934 5934 5934 5934 5934 5934 5934 5934 5935 5935 5935
5848 5848 5850 5851 5852 5854 5859 5862 5865 5867 5869 5871 5873 5875 5878 5881 5883 5886 5888 5890 5892 5894 5896 5898 5899 5901 5903 5904 5906 5907 5909 5910 5912 5913 5915 5916 5919 5921 5922 5923 5923 5923 5924 5925 5925 5926 5927 5928 5929 5930 5932 5932 5931 5931 5931 5931 5931 5931 5932 5932 5933 5933 5933
5845 5845 5847 5848 5849 5851 5854 5856 5859 5863 5865 5867 5869 5872 5875 5878 5880 5883 5885 5888 5890 5891 5893 5894 5896 5898 5900 5901 5903 5905 5907 5908 5909 5911 5912 5915 5917 5918 5919 5919 5919 5919 5920 5921 5922 5923 5924 5925 5926 5927 5928 5929 5929 5928 5929 5929 5929 5929 5929 5930 5930 5931 5930
5842 5843 5844 5844 5846 5848 5851 5852 5856 5859 5860 5863 5866 5869 5872 5875 5877 5880 5882 5885 5886 5888 5889 5891 5893 5895 5896 5897 5900 5903 5904 5905 5907 5908 5910 5911 5914 5915 5916 5916 5915 5915 5916 5918 5919 5920 5920 5921 5922 5923 5924 5924 5925 5926 5926 5926 5926 5926 5926 5927 5928 5928 5927
5839 5840 5841 5841 5841 5844 5846 5849 5851 5853 5854 5857 5860 5864 5868 5871 5873 5875 5878 5880 5882 5884 5886 5889 5890 5892 5893 5894 5897 5900 5902 5903 5904 5906 5907 5909 5910 5912 5913 5913 5912 5913 5914 5914 5915 5916 5917 5917 5918 5919 5920 5920 5922 5923 5923 5922 5922 5922 5923 5924 5925 5925 5924
5836 5837 5839 5839 5838 5839 5842 5844 5846 5847 5849 5853 5857 5861 5865 5867 5869 5872 5874 5876 5879 5881 5884 5886 5888 5889 5891 5892 5895 5897 5899 5900 5901 5903 5904 5905 5906 5908 5909 5910 5910 5911 5911 5912 5912 5913 5914 5916 5916 5916 5917 5917 5919 5920 5919 5918 5918 5919 5920 5921 5921 5921 5921
5835 5835 5836 5837 5836 5837 5839 5842 5844 5845 5848 5852 5856 5860 5863 5865 5867 5869 5870 5873 5875 5878 5881 5883 5885 5886 5887 5889 5891 5894 5896 5897 5898 5899 5900 5901 5902 5903 5905 5906 5907 5908 5909 5910 5910 5910 5912 5913 5913 5913 5914 5914 5915 5917 5916 5914 5914 5915 5915 5917 5917 5917 5917
5833 5833 5834 5835 5835 5834 5835 5838 5841 5844 5848 5851 5854 5857 5860 5862 5864 5866 5868 5870 5873 5875 5878 5880 5882 5883 5885 5887 5889 5891 5892 5894 5895 5895 5896 5898 5899 5900 5900 5902 5903 5904 5905 5906 5907 5907 5908 5909 5909 5910 5911 5911 5912 5913 5912 5909 5909 5910 5911 5912 5912 5913 5913
5832 5832 5832 5833 5833 5832 5833 5835 5838 5840 5844 5848 5850 5854 5856 5858 5861 5863 5866 5869 5871 5873 5876 5877 5879 5882 5883 5884 5886 5887 5888 5890 5891 5892 5893 5894 5895 5896 5896 5897 5898 5899 5900 5901 5902 5903 5904 5904 5906 5907 5907 5906 5907 5907 5906 5905 5905 5906 5907 5907 5908 5908 5909
5831 5831 5831 5832 5832 5831 5831 5833 5834 5836 5839 5843 5846 5850 5853 5855 5857 5860 5863 5866 5868 5870 5873 5874 5876 5879 5880 5881 5883 5883 5885 5886 5887 5888 5890 5891 5891 5891 5891 5893 5893 5894 5895 5896 5896 5897 5898 5900 5902 5902 5902 5901 5901 5902 5901 5901 5901 5902 5903 5903 5904 5904 5905
5829 5830 5831 5831 5832 5831 5829 5828 5830 5834 5837 5840 5843 5846 5849 5852 5855 5857 5860 5863 5865 5867 5869 5871 5874 5876 5877 5878 5879 5879 5880 5882 5882 5883 5886 5886 5886 5886 5886 5887 5888 5889 5889 5890 5890 5891 5893 5896 5897 5898 5897 5896 5896 5897 5897 5897 5897 5898 5899 5899 5900 5900 5900
5828 5829 5829 5830 5831 5830 5828 5827 5829 5832 5835 5838 5841 5843 5846 5850 5852 5855 5857 5860 5862 5864 5866 5868 5871 5873 5874 5875 5875 5875 5875 5877 5878 5879 5881 5881 5881 5881 5881 5882 5883 5884 5884 5885 5886 5886 5888 5891 5892 5892 5892 5890 5890 5891 5892 5892 5893 5894 5895 5895 5895 5896 5896
5826 5827 5828 5828 5829 5829 5828 5828 5828 5829 5831 5834 5837 5841 5844 5847 5850 5852 5855 5857 5858 5860 5863 5865 5867 5869 5870 5871 5871 5871 5871 5872 5874 5875 5875 5875 5876 5876 5876 5877 5878 5879 5880 5881 5881 5881 5881 5883 5884 5885 5885 5884 5883 5885 5886 5887 5889 5890 5891 5891 5891 5891 5891
5825 5826 5827 5827 5827 5828 5828 5828 5829 5829 5829 5831 5834 5838 5842 5844 5846 5849 5851 5853 5854 5857 5859 5862 5863 5864 5866 5867 5868 5869 5868 5867 5868 5869 5868 5868 5869 5869 5870 5871 5872 5873 5874 5875 5874 5874 5874 5875 5876 5878 5878 5877 5877 5879 5881 5883 5884 5885 5885 5885 5885 5886 5886
5824 5825 5826 5826 5827 5827 5827 5828 5829 5830 5830 5831 5834 5837 5840 5841 5843 5845 5846 5848 5850 5852 5854 5857 5859 5861 5862 5864 5865 5865 5865 5864 5864 5864 5864 5864 5864 5865 5866 5866 5866 5867 5868 5868 5867 5867 5867 5868 5870 5872 5872 5871 5872 5875 5877 5878 5878 5879 5879 5879 5879 5880 5880
5822 5823 5825 5826 5826 5827 5827 5828 5829 5831 5832 5833 5834 5836 5838 5839 5840 5842 5843 5845 5846 5848 5850 5852 5854 5856 5857 5859 5860 5861 5861 5862 5862 5862 5862 5862 5862 5862 5862 5862 5862 5863 5863 5862 5861 5861 5862 5864 5867 5868 5868 5867 5868 5870 5871 5872 5873 5873 5873 5874 5874 5875 5875
5820 5822 5823 5825 5825 5826 5827 5828 5829 5831 5832 5833 5834 5835 5837 5838 5839 5840 5842 5843 5845 5846 5847 5849 5850 5852 5853 5855 5856 5857 5858 5859 5859 5859 5860 5861 5861 5860 5860 5860 5860 5860 5860 5859 5857 5856 5857 5860 5862 5863 5863 5863 5863 5864 5865 5866 5867 5868 5868 5870 5870 5870 5870
5818 5820 5821 5823 5824 5825 5826 5827 5828 5830 5831 5832 5833 5834 5835 5836 5838 5839 5841 5842 5844 5845 5846 5847 5848 5849 5851 5852 5853 5854 5855 5856 5856 5857 5857 5858 5859 5858 5858 5858 5859 5858 5858 5857 5856 5855 5855 5857 5858 5858 5859 5860 5860 5860 5861 5862 5862 5863 5864 5866 5866 5865 5865
5816 5817 5819 5821 5822 5824 5825 5826 5827 5828 5829 5830 5831 5832 5834 5835 5836 5838 5839 5841 5842 5843 5844 5845 5846 5847 5848 5849 5850 5851 5852 5852 5853 5853 5854 5855 5856 5856 5856 5856 5856 5855 5855 5855 5855 5855 5855 5856 5856 5857 5857 5857 5857 5858 5858 5859 5860 5860 5861 5861 5862 5861 5861
5815 5816 5817 5818 5819 5821 5823 5824 5825 5826 5827 5828 5829 5831 5832 5834 5835 5836 5838 5839 5840 5842 5843 5844 5845 5845 5846 5847 5848 5848 5849 5849 5850 5850 5851 5852 5853 5853 5853 5854 5853 5853 5853 5853 5854 5854 5854 5855 5855 5856 5856 5856 5856 5856 5856 5857 5857 5858 5858 5858 5858 5858 5858
5814 5815 5816 5816 5817 5819 5821 5822 5823 5824 5826 5827 5828 5829 5831 5832 5833 5835 5836 5837 5838 5839 5841 5842 5843 5843 5844 5845 5846 5846 5846 5847 5847 5847 5848 5849 5849 5850 5851 5851 5851 5851 5851 5852 5852 5852 5853 5853 5854 5854 5854 5854 5854 5854 5854 5854 5855 5855 5855 5855 5855 5854 5854
5810 5812 5813 5815 5816 5817 5819 5820 5821 5823 5824 5825 5826 5828 5829 5831 5832 5833 5834 5835 5836 5837 5839 5840 5841 5842 5842 5843 5844 5844 5844 5845 5845 5845 5846 5846 5846 5847 5847 5848 5849 5849 5849 5850 5850 5850 5851 5851 5851 5851 5851 5851 5851 5851 5851 5851 5851 5851 5851 5851 5851 5851 5850
5806 5808 5810 5812 5813 5814 5816 5817 5819 5820 5822 5823 5825 5826 5827 5829 5830 5831 5832 5834 5834 5835 5836 5837 5838 5839 5840 5841 5842 5842 5843 5843 5844 5844 5844 5844 5844 5845 5845 5845 5846 5846 5847 5847 5847 5847 5848 5848 5848 5848 5848 5848 5848 5848 5847 5847 5847 5847 5847 5847 5846 5846 5846
5803 5805 5807 5808 5810 5811 5813 5815 5816 5818 5819 5821 5822 5824 5825 5827 5828 5829 5830 5831 5832 5833 5834 5835 5836 5837 5838 5838 5839 5840 5840 5841 5841 5842 5842 5842 5842 5842 5842 5842 5842 5843 5843 5843 5844 5844 5844 5844 5845 5845 5845 5845 5844 5844 5844 5844 5843 5843 5842 5842 5841 5841 5840